Flag for Poland Weather past 2 weeks in Gdynia, Poland

Now
68 °F

Passing clouds.


Feels Like: 68 °F
Forecast: 56 / 67 °F
Wind: 9 mph from Southwest

Location: Gdansk-Rebiechowo

Current Time: Aug 22, 2014 at 2:24:59 PM

Latest Report: Aug 22, 2014 at 2:00 PM


Visibility: N/A

Pressure: 29.92 "Hg

Humidity: 38%

Dew point: 41 °F

Location of GdyniaLocation

Historic Weather in Gdynia — Graph

°F

Gdynia temperature yesterday

Maximum temperature yesterday: 64 °F (at 1:00 PM)
Minimum temperature yesterday: 50 °F (at 4:00 AM)
Average temperature yesterday: 57 °F

Past Weeks' High & Low Weather Summary

 TemperatureHumidityPressure
High81 °F (Aug 9, 3:00 PM)100% (Aug 8, 3:30 AM)30.01 "Hg (Aug 8, 3:30 AM)
Low46 °F (Aug 22, 5:00 AM)29% (Aug 12, 3:00 PM)29.50 "Hg (Aug 14, 6:30 AM)
Average62 °F72%29.82 "Hg
* Reported Aug 7 1:00 PM — Aug 22 1:30 PM, Gdynia, Weather by CustomWeather, © 2014

Note: Actual official high and low records may vary slightly from our data, if they occured in-between our weather recording intervals... More about our weather records

Advertising

Gdynia weather history for previous 24 hours

 ConditionsComfort  
Time TempWeatherWind HumidityBarometerVisibility
1:30 PM
Aug 22
66 °FPassing clouds.12 mph43%29.95 "HgN/A
1:00 PM66 °FPassing clouds.12 mph43%29.95 "HgN/A
12:30 PM66 °FPassing clouds.10 mph46%29.95 "HgN/A
12:00 PM66 °FPassing clouds.10 mph43%29.95 "HgN/A
11:30 AM64 °FScattered clouds.9 mph46%29.95 "HgN/A
11:00 AM63 °FPassing clouds.10 mph52%29.95 "HgN/A
10:30 AM63 °FPassing clouds.8 mph52%29.95 "HgN/A
10:00 AM63 °FPassing clouds.8 mph52%29.95 "HgN/A
9:30 AM61 °FPassing clouds.8 mph59%29.95 "HgN/A
9:00 AM59 °FPassing clouds.7 mph63%29.95 "HgN/A
8:30 AM57 °FPassing clouds.6 mph67%29.95 "HgN/A
8:00 AM55 °FPassing clouds.5 mph72%29.95 "HgN/A
7:30 AM52 °FPassing clouds.3 mph82%29.95 "HgN/A
7:00 AM50 °FPassing clouds.3 mph82%29.95 "HgN/A
6:30 AM46 °FClear.3 mph93%29.98 "Hg10 mi
6:00 AM46 °FPassing clouds.3 mph87%29.95 "HgN/A
5:30 AM46 °FClear.3 mph93%29.95 "Hg10 mi
5:00 AM46 °FClear.2 mph87%29.95 "Hg10 mi
4:30 AM48 °FClear.2 mph82%29.95 "Hg10 mi
4:00 AM48 °FClear.2 mph87%29.95 "Hg10 mi
3:30 AM48 °FClear.2 mph87%29.95 "Hg10 mi
3:00 AM50 °FPassing clouds.3 mph82%29.95 "HgN/A
2:30 AM50 °FClear.2 mph82%29.95 "Hg10 mi
2:00 AM50 °FPassing clouds.3 mph82%29.95 "HgN/A
1:30 AM50 °FPassing clouds.3 mph82%29.98 "HgN/A
1:00 AM50 °FPassing clouds.3 mph82%29.98 "HgN/A
12:30 AM52 °FPassing clouds.3 mph77%29.98 "HgN/A
12:00 AM52 °FPassing clouds.5 mph77%29.98 "HgN/A
11:30 PM
Aug 21
52 °FPassing clouds.3 mph82%29.95 "HgN/A
11:00 PM52 °FPassing clouds.3 mph77%29.95 "HgN/A
10:30 PM54 °FPassing clouds.5 mph77%29.95 "HgN/A
10:00 PM54 °FPassing clouds.5 mph77%29.95 "HgN/A
9:30 PM55 °FPassing clouds.5 mph72%29.95 "HgN/A
9:00 PM55 °FSunny.3 mph72%29.95 "Hg10 mi
8:30 PM55 °FPassing clouds.8 mph72%29.95 "HgN/A
8:00 PM59 °FPassing clouds.12 mph59%29.95 "HgN/A
7:30 PM61 °FPassing clouds.5 mph55%29.92 "HgN/A
7:00 PM63 °FPassing clouds.6 mph52%29.92 "HgN/A
6:30 PM63 °FPassing clouds.6 mph52%29.92 "HgN/A
6:00 PM63 °FPassing clouds.8 mph52%29.92 "HgN/A
5:30 PM64 °FPassing clouds.9 mph46%29.92 "HgN/A
5:00 PM63 °FPassing clouds.7 mph52%29.92 "HgN/A
4:30 PM63 °FPassing clouds.7 mph49%29.92 "HgN/A
4:00 PM64 °FPassing clouds.9 mph46%29.92 "HgN/A
3:30 PM64 °FPassing clouds.9 mph46%29.92 "HgN/A
3:00 PM64 °FSunny.12 mph43%29.95 "Hg10 mi
2:30 PM63 °FPassing clouds.10 mph45%29.95 "HgN/A
2:00 PM63 °FPassing clouds.10 mph45%29.95 "HgN/A
Weather by CustomWeather, © 2014

See weather overviewHow to use our weather pages